This is the latest recevied weather packets stored in our database for station/object DG6YGE-6. If no packets are shown the sender has not sent any weather packets the latest 10 day(s).
| Time | Temp. | Humidity | Pressure | Rain* | Wind** | Luminosity | Snow |
|---|---|---|---|---|---|---|---|
| 1777276749 | 8.33° C | 79% | 1023.6 hPa | 0 mm | - | 411 W/m² | - |
| 1777276150 | 7.78° C | 81% | 1023.4 hPa | 0 mm | - | 409 W/m² | - |
| 1777275550 | 7.78° C | 83% | 1023.6 hPa | 0 mm | - | 353 W/m² | - |
| 1777274949 | 7.22° C | 86% | 1023.5 hPa | 0 mm | - | 372 W/m² | - |
| 1777274349 | 6.67° C | 88% | 1023.5 hPa | 0 mm | - | 308 W/m² | - |
| 1777273750 | 6.11° C | 89% | 1023.6 hPa | 0 mm | - | 284 W/m² | - |
| 1777273149 | 5.56° C | 91% | 1023.6 hPa | 0 mm | - | 354 W/m² | - |
| 1777272549 | 5° C | 92% | 1023.5 hPa | 0 mm | - | 255 W/m² | - |
| 1777271950 | 5° C | 92% | 1023.5 hPa | 0 mm | - | 196 W/m² | - |
| 1777271349 | 4.44° C | 92% | 1023.4 hPa | 0 mm | - | 161 W/m² | - |
| 1777270749 | 3.89° C | 92% | 1023.4 hPa | 0 mm | - | 131 W/m² | - |
| 1777270150 | 3.89° C | 92% | 1023.3 hPa | 0 mm | - | 133 W/m² | - |
| 1777269550 | 3.33° C | 92% | 1023.4 hPa | 0 mm | - | 131 W/m² | - |
| 1777268949 | 2.78° C | 91% | 1023.3 hPa | 0 mm | - | 121 W/m² | - |
| 1777268349 | 2.78° C | 91% | 1023.2 hPa | 0 mm | - | 89 W/m² | - |
| 1777267750 | 2.22° C | 91% | 1023.2 hPa | 0 mm | - | 76 W/m² | - |
| 1777267149 | 2.22° C | 90% | 1023.1 hPa | 0 mm | - | 69 W/m² | - |
| 1777266554 | 2.22° C | 90% | 1023.1 hPa | 0 mm | - | 65 W/m² | - |
| 1777265955 | 2.22° C | 90% | 1023 hPa | 0 mm | - | 65 W/m² | - |
| 1777265354 | 2.22° C | 89% | 1022.9 hPa | 0 mm | - | 49 W/m² | - |
| 1777264754 | 1.67° C | 89% | 1022.7 hPa | 0 mm | - | 31 W/m² | - |
| 1777264154 | 1.67° C | 89% | 1022.8 hPa | 0 mm | - | 17 W/m² | - |
| 1777263554 | 1.67° C | 89% | 1022.9 hPa | 0 mm | - | 9 W/m² | - |
| 1777262954 | 2.22° C | 88% | 1022.8 hPa | 0 mm | - | 3 W/m² | - |
| 1777262354 | 2.22° C | 88% | 1022.7 hPa | 0 mm | - | 0 W/m² | - |
* Rain latest hour (hover to see other rain measurements)
** Current wind speed in m/s (hover to see current wind gust speed)